www.pogodaiklimat.ru

Погода и климат >> Архив погоды >> Кука Острова >> Rarotonga


ПОГОДА в Rarotonga

  • Прогноз погоды в Rarotonga
  • Монитор погоды в Rarotonga
  • Климат города

АРХИВ ПОГОДЫ в Rarotonga

Время (UTC), дата Ветер
(напр.,м/с)
 
Видим.   Явления Облачность Т
(С)
Тd
(С)
f
(%)
Тe
(С)
Тes
(С)
Комфортность P
(гПа)
Po
(гПа)
Тmin
(С)
Tmax
(С)
R
(мм)
R24
(мм)
S
(см)
00 15.02 В 8 50 км 3/3 600 м
[Cu hum]
+28.0 +17.7 54 +32 +35 душно 1009.9 1010.0 +22.6
03 15.02 В 6 50 км 4/4 700 м
[Cu hum]
+27.2 +18.5 59 +32 +33 очень
душно
1009.0 1009.0
06 15.02 В 5 20 км 4/4 750 м
[Cu med, cong]
+25.0 +17.9 65 +29 +29 душно 1010.0 1010.0
09 15.02 В 5 20 км 3/3 750 м
[Cu hum]
+25.0 +18.1 66 +29 +29 душно 1011.6 1012.0
12 15.02 В 1 20 км 3/3 750 м
[Cu hum]
+24.0 +19.4 75 +29 +29 душно 1009.7 1010.0 +28.4
15 15.02 ЮВ 5 20 км 4/4 700 м
[Cu med, cong]
+25.0 +20.5 76 +31 +31 очень
душно
1008.1 1008.0
18 15.02 ЮВ 3 20 км слабый ливневой дождь 9/5 420 м
[Cu med, cong Ac As]
+24.0 +21.8 88 +31 +31 очень
душно
1009.5 1010.0 0.3
21 15.02 ЮВ 4 20 км {ливн. осадки} 9/5 450 м
[Cu med, cong Ac trans]
+26.7 +22.1 76 +35 +38 очень
душно
1010.0 1010.0
00 16.02 В 11 20 км ливневой дождь 10/5 300 м
[Cu Sc Ac As]
+24.3 +23.1 93 +32 +32 очень
душно
1009.0 1009.0 +23.0 0.1
03 16.02 Ю 6 20 км 10/10 200 м
[]
+25.0 +23.5 91 1007.9 1008.2
06 16.02 Ю 5 20 км слабая морось {ливн. осадки} 9/8 150 м
[Frnb Ac As]
+25.0 +23.5 91 +34 +34 очень
душно
1007.5 1008.0 2
09 16.02 В 1 20 км {морось} 5/5 240 м
[St Ac trans]
+24.1 +23.5 96 +32 +32 очень
душно
1008.8 1009.0
12 16.02 С 2 20 км осадки на расстоянии {ливн. осадки} 4/4 240 м
[Cu med, cong]
+24.5 +23.8 96 +33 +33 очень
душно
1008.8 1009.0 +26.9 1
15 16.02 С 4 20 км 5/5 180 м
[Frnb]
+25.1 +23.8 93 +34 +34 очень
душно
1007.9 1008.0
18 16.02 С 7 20 км слабый ливневой дождь 8/8 180 м
[Frnb]
+25.6 +24.3 93 +36 +36 очень
душно
1008.8 1009.0
21 16.02 С 6 20 км {ливн. осадки} 9/5 360 м
[Cu med, cong Ac trans]
+27.5 +24.5 84 +39 +41 очень
душно
1009.0 1009.0
00 17.02 С 6 50 км {ливн. осадки} 4/4 300 м
[Cu Sc Ac trans]
+30.5 +26.6 80 +47 +52 опасность
перегрева
1007.8 1008.0 +22.1 0.1
03 17.02 С 2 20 км {ливн. осадки} 8/8 270 м
[Frnb]
+26.0 +24.7 93 +37 +38 очень
душно
1007.7 1008.0
06 17.02 СВ 2 10 км гроза, ливневой дождь 10/8 120 м
[Frnb As op]
+24.8 +23.9 95 +34 +34 очень
душно
1009.5 1010.0 22
09 17.02 С 7 20 км осадки на расстоянии {гроза} 10/6 300 м
[Frnb As op]
+26.0 +23.2 85 +35 +35 очень
душно
1010.6 1011.0
12 17.02 С 8 20 км {гроза, ливн. осадки} 4/4 450 м
[Cu med, cong]
+26.4 +24.3 88 +37 +37 очень
душно
1009.2 1009.0 +32.4 0.3
15 17.02 С 4 20 км {ливн. осадки} 4/4 360 м
[Cu hum]
+25.1 +23.7 92 +34 +34 очень
душно
1008.3 1008.0
18 17.02 В 3 50 км 4/4 540 м
[Cu med, cong]
+25.5 +22.8 85 +34 +36 очень
душно
1010.4 1010.0 0.2
21 17.02 В 4 50 км 4/4 480 м
[Cu med, cong Ac trans]
+28.5 +23.5 74 +39 +46 очень
душно
1009.9 1010.0
00 18.02 В 2 20 км слабый ливневой дождь 8/5 300 м
[Cu med, cong As trans]
+27.7 +24.1 81 +39 +45 очень
душно
1008.7 1009.0 +27.7 0.0
03 18.02 СВ 2 20 км {морось, ливн. осадки} 8/5 540 м
[Cu med, cong Ac trans Ci fib]
+27.1 +23.3 80 +37 +38 очень
душно
1008.7 1009.0
06 18.02 В 3 20 км {ливн. осадки} 5/1 480 м
[Cu hum Ac trans Ci]
+25.0 +22.6 87 +33 +33 очень
душно
1008.0 1008.0 0.6
09 18.02 В 3 20 км 5/4 450 м
[Cu med, cong Ac trans Ci]
+25.7 +22.6 83 +34 +34 очень
душно
1009.5 1010.0
12 18.02 В 2 20 км 4/4 480 м
[Cu med, cong]
+24.9 +22.2 85 +32 +32 очень
душно
1008.0 1008.0 +29.5
15 18.02 ЮВ 2 20 км {ливн. осадки} 4/4 450 м
[Cu med, cong]
+23.5 +22.3 93 +31 +31 очень
душно
1007.4 1007.0
18 18.02 штиль 0 50 км {ливн. осадки} 1/1 480 м
[Cu med, cong]
+24.7 +23.2 91 +33 +37 очень
душно
1008.6 1009.0 0.4
21 18.02 ЮЗ 2 50 км 5/5 700 м
[Cu med, cong]
+27.9 +22.8 74 +37 +47 очень
душно
1008.7 1009.0
00 19.02 ЮВ 3 20 км {ливн. осадки} 6/6 300 м
[Cu Sc Ac trans]
+28.0 +22.8 73 +37 +43 очень
душно
1007.0 1007.0 +22.3 0.0
03 19.02 ЮВ 3 50 км 1/1 750 м
[Cu hum]
+28.4 +21.1 65 +36 +39 очень
душно
1006.2 1006.0
06 19.02 Ю 2 50 км 3/3 540 м
[Cu hum]
+25.2 +21.5 80 +32 +32 очень
душно
1007.1 1007.0
09 19.02 В 1 50 км 1/1 600 м
[Cu hum]
+23.3 +21.7 91 +32 +32 очень
душно
1007.4 1007.0
12 19.02 Ю 2 50 км 3/3 750 м
[Cu hum]
+22.0 +21.2 95 +28 +28 душно 1005.1 1005.0 +29.1
15 19.02 Ю 2 50 км {морось} 3/3 540 м
[Cu med, cong]
+22.9 +21.7 93 +31 +31 очень
душно
1004.8 1005.0
18 19.02 Ю 1 50 км 3/3 540 м
[Cu hum Ci fib]
+24.9 +22.4 86 +33 +35 очень
душно
1006.0 1006.0 0.1
21 19.02 ЮЗ 3 50 км 5/4 630 м
[Cu med, cong Ci]
+26.9 +22.7 78 +36 +44 очень
душно
1005.7 1006.0
00 20.02 ЮЗ 4 20 км 6/6 600 м
[Cu med, cong Ci fib]
+28.0 +23.4 76 +38 +44 очень
душно
1004.7 1005.0 +21.4 0.0
03 20.02 ЮЗ 2 50 км 5/5 700 м
[Cu med, cong Ci fib]
+27.7 +23.1 76 +37 +39 очень
душно
1004.4 1004.0
06 20.02 Ю 1 50 км 4/3 630 м
[Cu med, cong Ac trans Ci fib]
+25.2 +20.8 77 +32 +32 очень
душно
1006.1 1006.0
09 20.02 В 1 20 км 3/3 660 м
[Cu hum Ac trans Ci fib]
+24.0 +22.7 92 +31 +31 очень
душно
1007.3 1007.0
12 20.02 СЗ 2 20 км 5/5 630 м
[Cu med, cong]
+25.6 +23.3 87 +34 +34 очень
душно
1007.1 1007.0 +28.5
15 20.02 С 2 20 км 5/5 630 м
[Cu med, cong]
+25.0 +23.0 89 +33 +33 очень
душно
1006.8 1007.0
18 20.02 С 2 50 км 9/3 630 м
[Cu med, cong Ac trans Ci fib]
+26.0 +22.6 82 +34 +36 очень
душно
1009.1 1009.0
21 20.02 С 3 20 км 9/9 600 м
[Cu Sc]
+29.9 +25.9 79 +45 +46 опасность
перегрева
1009.4 1009.0
00 21.02 СВ 3 20 км 8/3 300 м
[Cu med, cong Ac As Cs]
+28.5 +23.9 76 +39 +46 очень
душно
1008.4 1008.0 +22.6
03 21.02 В 4 20 км {ливн. осадки} 9/4 480 м
[Cu med, cong Ac trans]
+26.9 +23.3 81 +36 +37 очень
душно
1007.7 1008.0
06 21.02 В 4 20 км 9/9 300 м
[]
+25.6 +23.6 89 +35 +35 очень
душно
1009.2 1009.0
09 21.02 В 3 20 км {ливн. осадки} 9/5 400 м
[Sc diur, vesp Ac As]
+24.0 +23.3 96 +32 +32 очень
душно
1011.2 1011.0
12 21.02 В 3 20 км осадки на расстоянии {ливн. осадки} 9/6 420 м
[Cu Sc Ac trans]
+24.9 +23.6 92 +34 +34 очень
душно
1010.2 1010.0 +30.7 28
15 21.02 С 6 20 км ливневой дождь {морось} 10/8 420 м
[Cu Sc As op]
+25.0 +23.1 89 +33 +33 очень
душно
1010.5 1011.0
18 21.02 С 5 20 км ливневой дождь 10/5 150 м
[Frnb As op]
+24.6 +23.9 96 +34 +34 очень
душно
1012.2 1012.0 11
21 21.02 С 4 20 км {ливн. осадки, морось} 10/5 450 м
[Cu med, cong Ac trans]
+25.6 +24.2 92 +35 +38 очень
душно
1013.5 1014.0

 

Местоположение метеостанции Rarotonga (Кука Острова): широта -21.20 долгота -159.80 высота над уровнем моря 7 м.

В архиве по умолчанию представлена погода в Rarotonga за последнюю неделю. Архивные данные за месяц целиком и за предыдущие месяцы, начиная с января 2011 года, Вы можете получить, выбрав интересующий диапазон дат из раскрывающегося списка и нажав кнопку "Ввод!".

Внимание! Время в таблицах - всемирное. Для получения местного времени необходимо прибавить поправку, которая в Rarotonga равна -10 ч.

Смотрите также архив погоды в соседних городах и на ближайших метеорологических станциях:

Погода в Aitutaki (Кука Острова) (264 км)
Погода в Bora-Bora Airport (Французская Полинезия) (1004 км)
Погода в Hanan Airport (Кука Острова) (1080 км)
Погода в Tubuai (Французская Полинезия) (1097 км)
Погода в Tahiti-Faaa (Французская Полинезия) (1144 км)
Погода в Tautira (Французская Полинезия) (1179 км)
Погода в Manihiki (Кука Острова) (1205 км)
Погода в Penrhyn (Кука Острова) (1367 км)
Погода в Le Mafa (Самоа) (1487 км)
Погода в Lufi-Lufi (Самоа) (1488 км)

Пояснения к столбцам:

Ветер - указаны скорость ветра в м/с - средняя за 10 мин, порывы в срок и между сроками (в фигурных скобках) и направление, откуда дует ветер: С - северный, СВ - северо-восточный, В - восточный, ЮВ - юго-восточный, Ю - южный, ЮЗ - юго-западный, З - западный, СЗ - северо-западный.
Видимость - горизонтальная дальность видимости в метрах или километрах. При видимости от 1 до 10 км при отсутствии осадков обычно наблюдается дымка, при ухудшении видимости до 1 км и менее - туман. В сухую погоду видимость может ухудшаться дымом, пылью или мглою.
Явления - указаны атмосферные явления, наблюдавшиеся в срок или в последний час перед сроком; фигурными скобками обозначены явления, наблюдавшиеся между сроками (за 1-3 часа до срока); квадратными скобками обозначены град или гололедные отложения с указанием их диаметра в мм.
Облачность - указаны через наклонную черту общая и нижняя облачность в баллах и высота нижней границы облаков в метрах; квадратными скобками обозначены формы облаков: Ci - перистые, Cs - перисто-слоистые, Cc - перисто-кучевые, Ac - высококучевые, As - высокослоистые, Sc - слоисто-кучевые, Ns - слоисто-дождевые, Cu - кучевые, Cb - кучево-дождевые. Подробнее классификацию облаков см. в Атласе облаков (PDF).
T - Температура воздуха - температура, измеренная на высоте 2 м над землей.
Td - Температура точки росы - температура, при понижении до которой содержащийся в воздухе водяной пар достигнет насыщения.
f - Относительная влажность воздуха - влажноcть воздуха, измеренная на высоте 2 м над землей.
Te - Эффективная температура - температура, которую ощущает одетый по сезону человек в тени. Характеристика душности погоды. При расчете учитывается влияние влажности воздуха и скорости ветра на теплоощущения человека.
Tes - Эффективная температура на солнце - температура, которую ощущает человек, с поправкой на солнечный нагрев. Характеристика знойности погоды. Зависит от высоты солнца над горизонтом, облачности и скорости ветра. Ночью, в пасмурную погоду, а также при ветре 12 м/с и более поправка равна нулю.
P - Атмосферное давление - приведенное к уровню моря атмосферное давление.
Po - Атмосферное давление - измеренное на уровне метеостанции атмосферное давление.
Tmin - Минимальная температура - минимум температуры воздуха на высоте 2 м над землей.
Tmax - Максимальная температура - максимум температуры воздуха на высоте 2 м над землей.
R - Количество осадков - Количество выпавших осадков за период времени, мм. При наведении курсора мыши на число - период времени, за который выпало указанное количество осадков.
R24 - Количество осадков - Количество выпавших осадков за 24 часа, мм.
S - Снежный покров - Высота снежного покрова, см. При наведении курсора мыши на число - состояние снежного покрова и степень покрытия местности в баллах.